Starlink 36133

operational
NORAD ID: 66963 Int'l Des: 2025-288 Owner: SPXS Country: US Constellation: starlink
LEOCIRCULAR

About Starlink 36133

Description loading...

Live Position

Loading 3D Globe...

Upcoming Passes

Altitude History

Altitude vs Time

uPlot chart will show altitude changes over time

Two-Line Element Set

1 66963U 25288E 26040.44518358 .00050438 00000-0 12049-2 0 9993
2 66963 42.9974 183.3144 0001140 219.9531 140.1242 15.40747103 10969
Epoch: Feb 9, 2026 • Age: 30 hours

Current Status

Altitude 443.7 km
Velocity 7.65 km/s
Sub-Earth Point 1.06°N, 152.83°E
Launch Date Dec 8, 2025
Age 0.1 years
Type internet

Technical Details

Classification Payload
Mass 575.00 kg
Dry Mass 530.00 kg
Total Mass 575.00 kg
Length 0.30 m
Diameter 4.10 m
Span 29.00 m
Shape Box + pan
Manufacturer SPXS
Bus Type Starlink V2MO
Phase Status In Orbit
Owner/State SPXS/US

Large Constellations

Loading constellations...